Other Surface Observations
Issued by NWS

Home | Current Version | Previous Version | Text Only | Print | Product List | Glossary On
Versions: 1 2 3 4 5 6 7 8 9 10 11 12 13 14 15 16 17 18 19 20 21 22 23 24 25 26 27 28 29 30 31 32 33 34 35 36 37 38 39 40 41 42 43 44 45 46 47 48 49 50
347
SXUS52 KTAE 090618
OSOTAE
OSOTAE
North Florida/South Alabama/Southwest Georgia Weather Roundup
National Weather Service Tallahassee Florida
100 AM EST TUE FEB 09 2016

Note: "fair" indicates few or no clouds below 12,000 feet with no
significant weather and/or obstructions to visibility.

!FLZ017-115-028-034-025-090700
...North Florida...

CITY           SKY/WX    TMP DP  RH WIND       PRES   REMARKS
TALLAHASSEE    CLEAR     48  23  37 NW13      29.96R WCI  43
APALACHICOLA   CLOUDY    48  24  39 NW14G23   30.00R WCI  42
PERRY          CLEAR     49  23  35 W14G20    29.95R WCI  44
CROSS CITY       N/A     52  28  39 NW12G23   29.93R
JACKSONVILLE   CLOUDY    50  32  50 W16       29.87R WCI  44
$$

!FLZ112-006-005-002-011-090700
...Florida Panhandle...

CITY           SKY/WX    TMP DP  RH WIND       PRES   REMARKS
MARIANNA       CLEAR     43  22  43 NW9       29.98R WCI  38
BONIFAY        FAIR      41  24  51 W3        30.00S
PANAMA CITY NW FAIR      43  24  47 W7        30.01R WCI  39
TYNDALL AFB    PTCLDY    46  24  42 NW16      30.02R WCI  39
TYND DRONE APT FAIR      47  23  40 MISG      30.03R
DE FUNIAK SPR  FAIR      38  22  52 W5        30.01S WCI  35
EGLIN AFB      PTCLDY    40  22  49 W7        30.02S WCI  35
DESTIN         CLEAR     48  23  37 W7        30.03S WCI  45
HURLBURT       CLEAR     44  18  35 W6        30.02F WCI  40
CRESTVIEW      CLEAR     39  23  52 W5        30.03S WCI  36
PENSACOLA      CLEAR     42  21  43 W8        30.04S WCI  37
$$

!ALZ063-066-090700
...South Alabama...

CITY           SKY/WX    TMP DP  RH WIND       PRES   REMARKS
DOTHAN         CLEAR     41  20  43 W13       29.99S WCI  34
OZARK CAIRNS   CLEAR     40  21  46 W7        29.97R WCI  35
FT RUCKER HELI CLEAR     40  20  44 W6        29.96F WCI  36
RUCKER HELI 3  FAIR      39  21  48 W5        29.98S WCI  36
RUCKER HELI 2  NOT AVBL
FLORALA APT    CLEAR     36  26  67 CALM      30.01S
ANDALUSIA      CLEAR     43  22  43 NW7       29.99S WCI  39
TROY           PTCLDY    40  21  46 W3        29.96S
EUFALA         FAIR      40  23  50 SW6       29.92S WCI  36
MOBILE         CLEAR     37  23  56 W6        30.07S WCI  32
$$

!GAZ120>161-090700
...Southwest and South Central Georgia...

CITY           SKY/WX    TMP DP  RH WIND       PRES   REMARKS
THOMASVILLE    FAIR      45  28  53 W6G22     29.94R WCI  41
BAINBRIDGE     NOT AVBL
MOODY AFB      CLEAR     45  26  47 W9        29.89R WCI  40
VALDOSTA       PTCLDY    46  25  43 VRB6      29.91R WCI  43
MOULTRIE       CLEAR     45  28  53 W12G17    29.93R WCI  39
BLAKELY        CLEAR     45  23  42 W8        29.95S WCI  40
ALBANY         CLEAR     44  23  43 W14G22    29.93R WCI  37
TIFTON         FAIR      43  29  57 W7        29.89R WCI  39
FITZGERALD     FAIR      44  26  51 NW10G16   29.89S WCI  38
CORDELE        FAIR      45  25  45 NW8G18    29.90R WCI  41
AMERICUS       FAIR      41  23  48 NW8       29.90S WCI  36
HOMERVILLE     FAIR      45  34  65 W9        29.88R WCI  40
$$

!GMZ750-755-770-775-090700
...Coastal and Buoy Obs...

STATION/POSITION TIME  TEMP    WIND        PRES    VSBY  WAVE
                       AIR SEA DIR/SP/G                  HT/PER
                 (UTC) (F)     (DEG/KT/KT) (MB)    (MI)  (FT/S)
KEATON BEACH     0600   51     300/ 20/ 25 1014.1R
CEDAR KEY        0600   54     320/ 15/ 22 1014.1R
C TOWER          NOT AVBL
APALACHICOLA BUO 0550   60 68  310/ 27/ 33 1014.3R        15/10
PANAMA CITY BUOY 0550   56 69  320/ 31/ 41 1016.6R        13/ 9
MOBILE BUOY      NOT AVBL
ORANGE BCH AL BU 0550   52 62  310/ 21/ 27 1017.2R         4/ 6
$$




USA.gov is the U.S. government's official web portal to all federal, state and local government web resources and services.